Location: Hradec Kralove
(50.2170°N, 15.8330°E)
Time: 18:50:55
(UTC+01:00)

Tiros 1 - Visible Passes

Search period start: 30 January 2023 00:00
Search period end: 09 February 2023 00:00
Orbit: 628 x 662 km, 48.4° (Epoch: 30 January)

Date Brightness Start Highest point End Pass type
(mag) Time Alt. Az. Time Alt. Az. Time Alt. Az.
30 Jan 10.1 03:29:01 13° E 03:29:01 13° E 03:29:31 10° E visible
30 Jan 7.1 05:06:38 69° SSW 05:06:54 72° S 05:11:37 10° E visible
30 Jan 7.9 06:44:21 10° W 06:48:48 43° SSW 06:53:17 10° SE visible
31 Jan 9.4 03:53:17 21° E 03:53:17 21° E 03:54:55 10° E visible
31 Jan 7.3 05:30:54 42° WSW 05:32:15 62° SSW 05:36:55 10° ESE visible
01 Feb 8.6 04:17:34 34° ESE 04:17:34 34° ESE 04:20:17 10° E visible
01 Feb 7.7 05:55:11 25° W 05:57:31 45° SSW 06:02:02 10° SE visible
02 Feb 7.7 04:41:53 51° SE 04:41:53 51° SE 04:45:37 10° ESE visible
02 Feb 8.3 06:19:30 15° W 06:22:40 29° SSW 06:26:45 10° SSE visible
03 Feb 10.1 03:28:36 12° E 03:28:36 12° E 03:28:59 10° E visible
03 Feb 7.5 05:06:13 47° SSW 05:06:14 47° SSW 05:10:46 10° SE visible
03 Feb 9.0 06:44:35 10° W 06:47:40 17° SW 06:50:44 10° S visible
04 Feb 9.5 03:52:59 19° ESE 03:52:59 19° ESE 03:54:18 10° ESE visible
04 Feb 8.1 05:30:37 29° SW 05:31:24 31° SSW 05:35:33 10° SSE visible
05 Feb 9.0 04:17:27 24° SE 04:17:27 24° SE 04:19:29 10° SE visible
05 Feb 8.8 05:55:05 17° WSW 05:56:24 19° SW 05:59:39 10° S visible
06 Feb 8.8 04:41:59 24° SSE 04:41:59 24° SSE 04:44:19 10° SE visible
07 Feb 9.0 05:06:35 17° SSW 05:06:35 17° SSW 05:08:33 10° S visible
